CW9181 Weather Reports


time (UTC)temp
F
wind
direction
speed
knots
gust
knots
rain 1hr
in
rain 24hr
in
rain mn
in
humidity
%
barometer
mb
20260506173818 65 296 0.9 2.6 0.00 0.00 0.00 72 1020.6
20260506172803 64 253 1.7 2.6 0.00 0.00 0.00 73 1020.6
20260506171825 64 184 0.0 2.6 0.00 0.00 0.00 72 1020.7
20260506170802 63 124 0.9 2.6 0.00 0.00 0.00 74 1020.7
20260506165803 63 282 1.7 2.6 0.00 0.00 0.00 76 1020.6
20260506164825 62 178 0.9 3.5 0.00 0.00 0.00 76 1020.6
20260506163804 62 353 0.9 2.6 0.00 0.00 0.00 76 1020.6
20260506162826 61 195 0.9 3.5 0.00 0.00 0.00 76 1020.6
20260506161810 61 176 1.7 2.6 0.00 0.00 0.00 76 1020.6
20260506160805 61 172 1.7 3.5 0.00 0.00 0.00 77 1020.6
20260506155807 60 193 2.6 3.5 0.00 0.00 0.00 78 1020.5
20260506154808 60 196 1.7 4.3 0.00 0.00 0.00 78 1020.6
20260506153824 60 176 1.7 3.5 0.00 0.00 0.00 79 1020.5
20260506152806 59 136 0.9 3.5 0.00 0.00 0.00 79 1020.5
20260506151807 59 118 2.6 4.3 0.00 0.00 0.00 80 1020.4
20260506150811 59 181 0.9 2.6 0.00 0.00 0.00 81 1020.5
20260506145811 59 151 1.7 4.3 0.00 0.00 0.00 81 1020.4
20260506144816 58 199 1.7 3.5 0.00 0.00 0.00 81 1020.4
20260506143819 58 199 1.7 5.2 0.00 0.00 0.00 82 1020.4
20260506142818 58 178 1.7 3.5 0.00 0.00 0.00 82 1020.5
20260506141801 58 189 0.9 3.5 0.00 0.00 0.00 82 1020.4
20260506140807 58 201 0.0 2.6 0.00 0.00 0.00 82 1020.3
20260506135806 58 153 0.0 2.6 0.00 0.00 0.00 82 1020.1
20260506134808 58 164 0.9 3.5 0.00 0.00 0.00 82 1020.0
20260506133812 58 182 2.6 3.5 0.00 0.00 0.00 82 1019.8
20260506132815 58 135 0.0 5.2 0.00 0.00 0.00 82 1019.8
20260506131815 58 128 1.7 3.5 0.00 0.00 0.00 82 1019.8
20260506130800 57 163 0.9 3.5 0.00 0.00 0.00 82 1019.8
20260506125801 57 137 1.7 4.3 0.00 0.00 0.00 82 1019.8
20260506124817 57 124 0.9 3.5 0.00 0.00 0.00 82 1019.8
20260506123804 57 141 0.9 5.2 0.00 0.00 0.00 82 1019.7
20260506122806 58 168 0.0 3.5 0.00 0.00 0.00 83 1019.6
20260506121807 58 140 0.9 3.5 0.00 0.00 0.00 83 1019.5
20260506120811 58 155 2.6 6.1 0.00 0.00 0.00 82 1019.5
20260506115815 58 125 0.9 5.2 0.00 0.00 0.00 82 1019.3
20260506114819 58 123 1.7 3.5 0.00 0.00 0.00 82 1019.3
20260506113840 58 141 1.7 3.5 0.00 0.00 0.00 82 1019.4
20260506112803 58 143 0.0 3.5 0.00 0.00 0.00 82 1019.4
20260506111804 58 114 0.0 3.5 0.00 0.00 0.00 82 1019.3
20260506110803 58 128 2.6 4.3 0.00 0.00 0.00 82 1019.2
20260506105808 58 132 0.9 2.6 0.00 0.00 0.00 82 1019.0
20260506104832 58 139 0.9 3.5 0.00 0.00 0.00 82 1019.0
20260506103809 58 114 1.7 3.5 0.00 0.00 0.00 82 1018.9
20260506102813 58 95 0.9 4.3 0.00 0.00 0.00 81 1018.9
20260506101818 58 144 2.6 5.2 0.00 0.00 0.00 81 1018.8
20260506100800 58 133 3.5 4.3 0.00 0.00 0.00 81 1018.8
20260506095803 58 124 1.7 6.1 0.00 0.00 0.00 81 1018.8
20260506094809 58 124 1.7 4.3 0.00 0.00 0.00 81 1018.7
20260506093807 58 131 1.7 3.5 0.00 0.00 0.00 80 1018.7
20260506092809 59 112 1.7 3.5 0.00 0.00 0.00 80 1018.7
20260506091814 59 143 0.9 4.3 0.00 0.00 0.00 80 1018.7
20260506090800 59 116 2.6 6.1 0.00 0.00 0.00 80 1018.7
20260506085817 59 167 2.6 5.2 0.00 0.00 0.00 80 1018.6
20260506084822 59 143 2.6 4.3 0.00 0.00 0.00 80 1018.7
20260506083803 59 114 2.6 3.5 0.00 0.00 0.00 80 1018.7
20260506082822 59 139 0.0 2.6 0.00 0.00 0.00 80 1018.8
20260506081804 59 140 0.9 3.5 0.00 0.00 0.00 80 1018.8
20260506080807 59 158 0.0 2.6 0.00 0.00 0.00 80 1018.7
20260506072808 60 182 0.0 1.7 0.00 0.01 0.00 80 1018.3
20260506071814 60 180 1.7 3.5 0.00 0.01 0.00 80 1018.3
20260506070835 60 186 0.9 2.6 0.00 0.01 0.00 79 1018.2
20260506061816 60 180 0.0 2.6 0.00 0.05 0.01 79 1017.8
20260506060819 60 198 0.9 4.3 0.00 0.05 0.01 78 1017.7
20260506050818 61 184 2.6 6.1 0.00 0.15 0.01 77 1017.3
20260506044802 62 182 1.7 3.5 0.00 0.26 0.01 77 1017.0
20260506043821 62 195 1.7 4.3 0.00 0.26 0.01 78 1017.0
20260506042811 62 180 0.0 3.5 0.00 0.26 0.01 77 1016.9
20260506041829 62 157 0.0 3.5 0.00 0.26 0.01 77 1016.6
20260506040803 62 161 2.6 6.1 0.00 0.26 0.01 77 1016.5
20260506035837 63 132 2.6 6.1 0.00 0.49 0.01 76 1016.3
20260506034814 63 126 2.6 4.3 0.00 0.49 0.01 76 1016.4
20260506033828 63 139 2.6 4.3 0.00 0.49 0.01 75 1016.4
20260506032805 63 141 1.7 5.2 0.00 0.49 0.01 75 1016.3
20260506031804 63 110 1.7 5.2 0.00 0.49 0.01 74 1016.2
20260506030819 63 168 0.0 2.6 0.00 0.49 0.01 73 1015.9
20260506025814 63 136 2.6 6.1 0.00 0.58 0.01 73 1015.8
20260506024809 63 172 2.6 7.0 0.00 0.58 0.01 72 1015.7
20260506023842 63 155 1.7 7.0 0.00 0.58 0.01 72 1015.6
20260506022818 64 184 3.5 8.7 0.00 0.58 0.01 72 1015.4
20260506021818 64 165 2.6 7.0 0.00 0.58 0.01 72 1015.2
20260506020811 64 120 4.3 9.6 0.00 0.58 0.01 71 1015.2
20260506015811 64 124 4.3 7.0 0.00 0.67 0.01 70 1015.2
20260506014839 65 182 4.3 8.7 0.00 0.67 0.01 69 1015.2
20260506013815 65 97 4.3 7.0 0.00 0.67 0.01 68 1015.1
20260506012817 65 101 5.2 7.0 0.00 0.67 0.01 68 1015.1
20260506011842 65 127 2.6 8.7 0.00 0.67 0.01 69 1015.2
20260506010819 65 144 2.6 8.7 0.00 0.67 0.01 68 1015.2
20260506005817 66 118 2.6 6.1 0.00 0.71 0.01 67 1015.0
20260506004817 66 96 2.6 5.2 0.00 0.71 0.01 67 1014.8
20260506003814 66 112 4.3 7.8 0.00 0.71 0.01 67 1014.8
20260506002816 66 159 1.7 6.1 0.00 0.71 0.01 67 1014.7
20260506001818 66 145 4.3 7.8 0.00 0.71 0.01 66 1014.7
20260506000811 66 103 3.5 7.0 0.00 0.71 0.01 65 1014.7
20260505235812 66 136 1.7 4.3 0.00 0.82 0.01 65 1014.7
20260505234814 66 157 1.7 4.3 0.00 0.82 0.01 64 1014.7
20260505233813 66 202 0.9 7.0 0.00 0.82 0.01 65 1014.7
20260505232812 67 184 2.6 6.1 0.00 0.82 0.01 64 1014.7
20260505231809 67 172 1.7 4.3 0.00 0.82 0.01 62 1014.6
20260505230807 67 114 2.6 4.3 0.00 0.82 0.01 62 1014.7
20260505225808 67 34 1.7 2.6 0.00 0.88 0.01 62 1014.7
20260505224801 67 143 0.9 3.5 0.00 0.88 0.01 63 1014.7
20260505223816 67 170 2.6 4.3 0.00 0.88 0.01 62 1014.7
20260505222818 66 178 0.0 2.6 0.00 0.88 0.01 64 1014.9
20260505221842 66 324 0.9 3.5 0.00 0.88 0.01 64 1015.0
20260505220816 65 57 0.9 5.2 0.00 0.88 0.01 65 1015.1
20260505215834 65 277 2.6 5.2 0.00 0.91 0.01 66 1015.1
20260505214831 66 250 1.7 3.5 0.00 0.91 0.01 65 1015.2
20260505213810 65 12 1.7 5.2 0.00 0.91 0.01 65 1015.3
20260505212833 67 349 1.7 6.1 0.00 0.91 0.01 65 1015.3
20260505211811 65 197 2.6 7.0 0.00 0.91 0.01 68 1015.3
20260505210803 65 116 1.7 7.0 0.00 0.91 0.01 67 1015.3
20260505205820 65 101 1.7 4.3 0.00 0.91 0.01 68 1015.4
20260505204820 64 156 2.6 5.2 0.00 0.91 0.01 71 1015.6
20260505203820 64 119 1.7 4.3 0.00 0.91 0.01 71 1015.5
20260505202801 63 191 1.7 5.2 0.00 0.91 0.01 74 1015.7
20260505201819 63 287 1.7 3.5 0.00 0.91 0.01 74 1015.7
20260505200813 62 228 2.6 4.3 0.00 0.91 0.01 74 1015.8
20260505195809 62 181 1.7 4.3 0.00 0.92 0.01 75 1015.8
20260505194806 62 181 2.6 5.2 0.00 0.92 0.01 76 1015.8
20260505193803 62 215 2.6 4.3 0.00 0.92 0.01 76 1015.8
20260505192819 62 245 2.6 5.2 0.00 0.92 0.01 74 1015.8
20260505191801 63 232 1.7 3.5 0.00 0.92 0.01 76 1015.9
20260505190840 62 102 2.6 4.3 0.00 0.92 0.01 74 1015.9
20260505185813 61 138 3.5 4.3 0.00 0.92 0.01 77 1015.9
20260505184837 61 96 1.7 3.5 0.00 0.92 0.01 78 1015.8
20260505183813 61 95 1.7 5.2 0.00 0.92 0.01 79 1015.7
20260505182814 60 128 2.6 5.2 0.00 0.92 0.01 80 1015.9
20260505181813 60 159 0.9 5.2 0.00 0.92 0.01 80 1015.8
20260505180830 59 172 1.7 4.3 0.00 0.92 0.01 82 1015.7
20260505175830 59 182 0.9 3.5 0.00 0.95 0.01 83 1015.6
20260505174812 59 124 1.7 3.5 0.00 0.95 0.01 84 1015.5